SPACEBEE-26 (46956 NORAD) Tracking and Keplerian Element Data

This shows tracking and keplerian element data for the satellite.

Feedback or suggestion? Click here.




ElementValue
Catalog46956
NameSPACEBEE-26
Epoch Orbit840
Epoch Day14.92943068
Epoch Year2021
RAAN154.3502
Inclination97.3721
Eccentricity0.0016388
Argument of Perigee114.9296
Mean Anonmoly245.3645
Mean Motion15.20910503
Decay Rate4.234E-05
L11 46956U 20085AD 21014.92943068 .00004234 00000-0 19390-3 0 9992
L22 46956 97.3721 154.3502 0016388 114.9296 245.3645 15.20910503 8406

Live tracking and technical data element details for SPACEBEE-26 (NORAD 46956). SPACEBEE-26 can be tracked NOW for your location showing map with azimuth and elevation plus other details from your city location.

Track the satellite on the map from your city or location and see movement details for azimuth, elevation, latitude, longitude, range, height, and movement on the map or in text.







IsCatalogInMostPopularTable: catalog: 46956, numindb: 18
Update: records affected: 1



GetName: 46956 SPACEBEE-26

Hit Count: updated at: Fri, 15 Jan 2021 23:51:28 GMT